Погода в Пронькине

Россия / Оренбургская область     52°42′19″N   52°54′27″E
темп.,
°C
ветер,
м/с
пор.,
м/с
влажн.,
%
обл.,
%
осадки,
мм/ч
давл.,
гПа
погр.,
м
26 июля, пн
пн2623:00+14с411420 0.0 1021205
02:00+12ссз34460 0.0 102254
05:00+11ссз33530 0.0 102240
08:00+14с35470 0.0 1023237
11:00+20с56330 0.0 10231855
14:00+23с442827 0.0 10222596
17:00+24ссз46256 0.0 10202690
20:00+22ссз472972 0.0 1020408
27 июля, вт
вт2723:00+18с223616 0.0 102124
02:00+14с22495 0.0 102113
05:00+13сз11557 0.0 102110
08:00+17зсз23455 0.0 1021197
11:00+23зсз45350 0.0 10191950
14:00+25сз6630100 0.0 10182919
17:00+25зсз463399 0.0 10162337
20:00+23сз354116 0.0 1016386
28 июля, ср
ср2823:00+17зсз246533 0.0 101569
02:00+15сз48795 0.0 1015162
05:00+12ссз37940 0.0 1016136
08:00+16с34684 0.0 1017248
11:00+21ссз354331 0.0 10161692
14:00+24ссз55315 0.0 10152435
17:00+25ссз56255 0.0 10142566
20:00+23с46293 0.0 1014486
29 июля, чт
чт2923:00+17ссв11410 0.0 101511
02:00+16юз11421 0.0 101511
05:00+15ююз22461 0.0 101411
08:00+19ююз363776 0.0 1014198
11:00+25зюз563598 0.0 10141101
14:00+24юз2440100 0.1 1013437
17:00+26в0243100 0.9 1011786
20:00+17св3592100 1.1 1012146
30 июля, пт
пт3023:00+17ююв3690100 2.1 1011198
02:00+17ююв4108998 0.5 1009285
05:00+16ююз3108910 0.5 1008234
08:00+19зюз598097 0.0 1008268
11:00+26зюз710535 0.0 10071213
14:00+29з10123666 0.0 10072561
17:00+30зсз10113227 0.0 10072961
20:00+27зсз610360 0.0 10081180